RAF Northholt

Airport
ICAO code: 
EGWU
IATA Code: 
NHT
Summary
ICAO Region: 
EUR
Territory: 
Location: 
Northolt, Middlesex, England,
Serving: 
Northolt
Elevation: 
124 ft
Coordinates: 
Aerial View: 
51° 33' 6" N, 0° 25' 6" W
Metar
Observation
EGWU 210450Z AUTO 31002KT 9999 NCD M02/M04 Q1039
Station
Northolt
Date/Time
2022-01-21 04:50:00
Wind direction
310°
Wind speed
02 kts
Lowest cloud amount
no clouds detected
Temperature
-2°C
Dew point
-4°C
Humidity
86%
QNH
1039 hPa
Weather condition
n/a

Description

RAF Northolt is a military airport available to non scheduled civil traffic by prior arrangement.

Climatology

Temperate Marine climate/Oceanic climate (Köppen climate classification Cfb). Moderately cool summer and comparatively warm winter with a temperature range of only 14°C. Prevailing south-westerly winds from the Atlantic Ocean.

Runways

Designator Length Width Surface Rops
7/25 1690 46 ASP Yes/Yes
Airport map: 
Aerial View: 

Accidents and Serious Incidents at or in the vicinity of EGWU

SKYbrary Partners:

Safety knowledge contributed by: